Forside
METAR-TAF:

METAR-TAF

Lufthavne :

Minocqua / Woodruff, Wisconsin, USA

Breddekreds: 45-56N, længdekreds: 089-44W, højde: 496 m

Aktuelle vejr

Denne rapport blev lavet for 18 minutter siden, kl. 05:35 UTC
Vind 5 kt fra nordnordøst
Temperatur -3°C
Fugtighed 68%
Tryk 1019 hPa
Sigt: 16.1 km
Overskyet i en højde af 1400 ft

METAR: KARV 050535Z AUTO 03005KT 10SM OVC014 M03/M08 A3008 RMK AO2 T10331083

Tid: 23:53 (05:53 UTC)


TAF: fraværende

Vejrobservationer og prognoser fra mere end 4000 lufthavne (METAR og TAF).

De gule og røde prikker repræsenterer de meteorologiske stationer.

Flyt musen over at se navnet på stationen.

Så klik over at se vejr observationer og prognoser.

At skifte det kort: Klik på de grønne knapper med et sort kors for at zoome ind; på den grønne knap med en bindestreg for at zoome ud; eller på de grønne pile for tilstødende kort.


METAR-TAF: